User: anonymous   Login
Location: Caltech
(34.1382°N, 118.1253°W)
Time: 07:02:02
(UTC-08:00)
Language:

NOSS 3-4 (C) - Orbit

View from above orbital plane
View from above orbital plane
View from above satellite
View from above satellite

Ground track
Ground track

The orbit data is extracted from the following two-line orbital elements,

1 31708U 07027C   15059.83349442 0.00000100  00000-0  17322-3 0    04
2 31708  63.4030  62.6929 0126000  34.0528 325.9472 13.40675027    09
Epoch (UTC): 28 February 2015 20:00:13
Eccentricity: 0.0126000
inclination: 63.4030°
perigee height: 1012 km
apogee height: 1201 km
right ascension of ascending node: 62.6929°
argument of perigee: 34.0528°
revolutions per day: 13.40675027
mean anomaly at epoch: 325.9472°
orbit number at epoch: 0

The dashed part of the orbit path shows where the satellite is in the earth's shadow,  

DLR